Location: Austin
(30.3000°N, 97.7500°W)
Time: 12:19:56
(UTC-05:00)

Exosat Rocket - Pass Details

Date: 08 April 2026
Orbit: 761 x 2512 km, 72.3° (Epoch: 11 April)

Event Time Altitude Azimuth Distance (km) Brightness Sun altitude
Rises 21:50:23 0° 346° (NNW) 3,508 7.5 -24.7°
Reaches altitude 10° 21:52:34 10° 350° (N) 2,692 6.7 -25.1°
Maximum altitude 21:58:44 66° 72° (ENE) 1,288 4.3 -26.3°
Enters shadow 22:00:20 54° 124° (SE) 1,503 4.5 -26.6°
